ECMWFNIL_850_dewp_003.txt.gz
Dewpoint
-7 -8 -8 -7 -6 -4 -4 -3 -3 -2 -2 -2 -2 -4 -5 -5 -6 -6 -7 -7 -6 -7 -8 -9 -10 -9 -9 -9 -8 -9 -9 -9 -9 -9 -10 -10 -10 -11 -11 -11 -11 -11
-5 -7 -8 -8 -7 -5 -3 -2 -2 -2 -2 -2 -1 -2 -4 -5 -6 -6 -6 -6 -6 -7 -7 -8 -9 -9 -9 -8 -8 -8 -8 -9 -8 -9 -9 -9 -10 -10 -10 -10 -11 -10
-4 -5 -6 -7 -7 -6 -4 -2 -2 -2 -1 -1 -0 -1 -2 -3 -5 -5 -6 -6 -6 -6 -6 -7 -9 -9 -9 -8 -8 -8 -8 -8 -8 -8 -8 -9 -10 -10 -10 -11 -11 -11
-2 -3 -4 -5 -6 -6 -4 -2 -1 -1 -1 -1 -0 0 -0 -2 -3 -4 -6 -6 -6 -5 -5 -6 -7 -8 -8 -8 -8 -8 -8 -7 -7 -7 -7 -8 -9 -10 -10 -11 -11 -11
-1 -1 -1 -3 -5 -5 -4 -3 -1 -1 -1 -1 -1 0 0 -0 -2 -3 -5 -5 -6 -5 -5 -5 -5 -6 -7 -8 -8 -8 -8 -8 -7 -7 -7 -8 -9 -9 -10 -11 -12 -12
-0 -0 -0 -0 -2 -4 -4 -3 -1 0 -0 -1 -1 0 1 1 0 -2 -3 -4 -5 -5 -5 -5 -4 -5 -6 -7 -8 -8 -8 -7 -7 -7 -7 -8 -9 -9 -10 -11 -12 -13
-0 1 -0 0 -0 -1 -2 -3 -1 1 1 -0 -1 -0 1 1 1 -0 -1 -3 -4 -5 -5 -5 -4 -4 -4 -5 -7 -8 -8 -8 -8 -7 -7 -8 -8 -9 -9 -10 -12 -13
-1 0 0 0 0 0 -0 -1 -1 1 2 1 -0 -0 1 2 2 1 0 -1 -2 -3 -4 -4 -4 -3 -3 -4 -5 -7 -8 -7 -8 -7 -7 -8 -8 -9 -9 -10 -12 -13
-0 0 0 1 1 1 1 0 0 1 3 3 1 0 0 1 2 2 1 0 -0 -1 -2 -3 -3 -3 -3 -3 -4 -6 -8 -7 -7 -7 -7 -7 -8 -9 -10 -11 -12 -14
2 1 0 0 0 1 1 2 2 2 3 3 3 1 1 2 2 2 2 1 1 1 0 -0 -2 -2 -2 -3 -3 -5 -7 -8 -7 -7 -7 -7 -8 -10 -10 -12 -13 -15
5 4 2 1 -0 0 1 2 2 2 3 4 3 2 1 1 2 2 2 2 2 2 1 1 0 -1 -1 -2 -3 -4 -6 -8 -7 -7 -7 -8 -9 -10 -10 -11 -14 -18
6 6 5 3 2 1 0 1 2 3 4 4 4 3 1 2 3 3 2 2 2 2 2 2 2 1 -0 -2 -3 -4 -6 -7 -7 -7 -7 -9 -9 -9 -11 -14 -17 -18
5 6 6 6 5 4 3 2 3 3 4 4 5 4 2 2 3 2 2 3 3 3 3 3 2 2 0 -1 -3 -5 -7 -7 -7 -8 -8 -9 -10 -10 -13 -17 -19 -18
1 4 6 6 7 6 6 5 5 5 5 4 5 4 3 2 2 3 3 3 3 3 3 3 3 2 0 -2 -4 -5 -7 -7 -7 -8 -8 -9 -10 -14 -18 -20 -19 -19
-4 -2 2 5 6 7 7 6 6 6 5 5 5 5 4 3 3 3 3 2 2 2 2 3 3 1 -1 -3 -5 -6 -7 -7 -7 -7 -8 -10 -13 -18 -20 -20 -20 -20
-7 -8 -5 -0 3 5 6 6 6 6 6 6 5 5 5 3 3 3 3 2 1 1 2 2 2 -0 -2 -4 -5 -6 -6 -6 -6 -7 -9 -14 -19 -22 -21 -21 -21 -20
-6 -7 -7 -6 -1 4 6 6 6 6 6 6 6 5 4 4 3 2 2 1 0 1 2 1 0 -2 -3 -5 -5 -5 -5 -5 -6 -9 -14 -18 -21 -22 -21 -22 -21 -21
-7 -6 -6 -6 -2 3 6 7 6 6 6 6 6 5 4 4 3 1 1 1 1 1 1 0 -1 -2 -4 -4 -5 -4 -4 -5 -8 -12 -17 -20 -21 -22 -21 -21 -21 -22
-8 -8 -7 -5 -2 2 6 7 7 6 6 6 6 5 4 4 3 1 1 2 1 1 0 -1 -2 -3 -4 -4 -3 -3 -4 -7 -11 -15 -18 -20 -21 -21 -20 -21 -21 -21
-11 -10 -9 -8 -5 -2 4 7 7 7 6 6 5 5 4 4 3 2 1 1 1 0 0 -1 -2 -3 -3 -3 -3 -4 -6 -9 -12 -15 -18 -19 -20 -20 -19 -19 -19 -19
-13 -12 -11 -10 -10 -7 -0 5 7 7 6 6 5 5 4 3 3 2 1 1 1 0 -0 -1 -2 -3 -3 -3 -4 -6 -9 -11 -13 -15 -18 -17 -17 -18 -17 -15 -15 -16
-13 -12 -11 -11 -9 -8 -3 3 7 7 6 6 5 4 4 4 3 1 1 1 1 0 -0 -1 -2 -2 -3 -4 -7 -9 -10 -11 -13 -16 -16 -15 -16 -16 -13 -12 -13 -13
-13 -11 -10 -10 -9 -8 -4 2 5 6 7 6 4 4 4 4 2 1 1 1 0 -1 -1 -2 -3 -3 -5 -8 -10 -11 -11 -12 -14 -13 -12 -13 -14 -13 -11 -10 -11 -12
-13 -10 -9 -9 -9 -9 -4 2 5 6 6 6 5 4 4 3 2 2 1 -0 -1 -2 -3 -4 -5 -7 -9 -11 -10 -10 -11 -12 -12 -11 -11 -11 -12 -11 -10 -10 -11 -12
-14 -12 -9 -8 -9 -10 -4 3 5 6 6 6 5 4 2 2 2 1 -1 -1 -2 -4 -5 -7 -8 -9 -10 -10 -10 -10 -11 -11 -10 -10 -10 -11 -10 -9 -9 -10 -11 -13
-13 -11 -8 -7 -8 -7 -0 4 6 6 6 6 5 3 2 2 1 -1 -1 -2 -3 -6 -8 -9 -11 -11 -11 -11 -11 -11 -11 -10 -10 -10 -10 -10 -9 -9 -9 -10 -12 -13

ECMWFNIL_850_dewp_006.txt.gz
Dewpoint
-8 -9 -7 -8 -7 -4 -3 -1 2 -1 -1 2 3 3 1 -4 -7 -6 -7 -7 -7 -8 -8 -9 -9 -9 -9 -8 -8 -8 -8 -8 -8 -8 -8 -9 -9 -10 -11 -11 -11 -11
-7 -9 -8 -8 -8 -6 -5 -3 -1 -1 -1 0 2 3 2 -3 -6 -6 -6 -6 -6 -7 -7 -8 -9 -9 -9 -8 -8 -8 -7 -8 -8 -7 -8 -8 -8 -9 -10 -11 -11 -12
-6 -7 -8 -9 -8 -7 -6 -5 -3 -1 -1 -1 0 1 0 -3 -4 -5 -6 -6 -6 -6 -7 -7 -8 -9 -9 -9 -8 -8 -8 -8 -7 -7 -8 -7 -8 -9 -9 -10 -11 -12
-5 -6 -7 -8 -8 -9 -7 -6 -4 -2 -1 -1 -1 -1 -1 -1 -2 -4 -5 -6 -6 -6 -6 -6 -7 -7 -8 -8 -9 -8 -8 -8 -7 -7 -7 -7 -8 -8 -8 -9 -10 -12
-4 -4 -5 -6 -7 -8 -8 -7 -6 -3 -2 -1 -0 -1 -1 -1 -1 -2 -3 -4 -5 -5 -5 -5 -5 -6 -6 -7 -8 -8 -8 -8 -8 -8 -7 -7 -8 -8 -8 -9 -9 -11
-3 -3 -4 -5 -5 -6 -7 -7 -6 -5 -4 -2 -1 -0 -0 -1 -0 -0 -1 -2 -4 -5 -5 -5 -5 -5 -5 -5 -5 -6 -7 -8 -8 -8 -8 -7 -7 -7 -8 -8 -9 -11
-3 -3 -3 -3 -3 -3 -4 -5 -5 -6 -5 -3 -1 -0 0 -0 -0 0 0 -0 -2 -3 -4 -4 -5 -4 -4 -4 -4 -4 -5 -7 -8 -8 -8 -8 -8 -8 -8 -8 -9 -10
-4 -3 -2 -2 -2 -2 -2 -2 -3 -4 -5 -4 -3 -0 1 1 0 0 1 1 -0 -1 -3 -3 -4 -4 -4 -3 -3 -3 -3 -4 -6 -7 -8 -8 -8 -8 -8 -8 -8 -10
0 -1 -2 -2 -2 -3 -2 -1 -0 -1 -2 -3 -2 -1 1 1 0 0 1 1 1 0 -0 -1 -2 -2 -2 -2 -2 -2 -2 -3 -4 -5 -7 -8 -8 -8 -8 -8 -9 -10
4 4 3 2 1 -1 -1 -2 -1 1 1 -1 -1 -1 1 2 2 1 1 1 1 1 1 0 -0 -1 -1 -1 -1 -1 -1 -2 -2 -4 -5 -7 -8 -8 -8 -8 -9 -10
5 5 5 4 4 3 2 1 -1 -1 1 1 1 0 1 2 3 2 1 1 2 2 1 1 0 0 0 0 0 0 0 -0 -1 -3 -4 -6 -8 -8 -8 -8 -9 -10
4 5 5 6 6 4 3 3 2 1 0 0 1 1 2 3 3 2 2 1 2 2 2 2 1 1 1 0 1 1 1 1 -0 -2 -4 -6 -7 -8 -8 -8 -10 -12
-2 1 4 7 8 7 6 5 5 5 4 2 2 2 2 2 3 3 2 2 2 2 2 2 2 2 1 1 1 2 2 2 0 -2 -4 -6 -7 -8 -8 -8 -11 -15
-7 -7 -3 2 6 8 8 8 8 8 7 6 5 4 3 3 4 4 3 2 2 2 2 2 2 2 2 1 2 2 2 2 -0 -2 -4 -6 -7 -7 -8 -9 -13 -17
-7 -7 -7 -5 -2 2 5 8 8 8 8 8 7 6 6 5 5 4 4 3 3 2 3 2 2 2 2 2 2 2 2 1 -1 -3 -5 -6 -6 -8 -9 -12 -17 -20
-7 -7 -7 -7 -7 -6 -2 4 7 8 8 8 8 8 7 7 6 5 4 4 3 3 3 3 3 3 2 2 2 2 1 -0 -2 -4 -5 -6 -7 -9 -12 -15 -18 -21
-9 -9 -8 -8 -8 -7 -7 -3 4 7 8 8 8 8 8 7 7 6 5 4 3 3 3 3 3 2 2 2 2 1 0 -2 -3 -4 -5 -6 -8 -11 -14 -14 -15 -17
-11 -11 -9 -7 -8 -7 -7 -7 -3 3 6 8 8 7 7 6 6 5 5 4 4 3 3 3 3 2 3 2 1 0 -1 -2 -3 -4 -5 -7 -9 -13 -14 -13 -14 -17
-14 -11 -8 -6 -7 -9 -9 -5 -4 -2 2 6 7 7 7 6 6 6 5 4 4 3 3 3 2 3 3 1 0 -1 -2 -3 -3 -4 -6 -8 -10 -13 -15 -16 -18 -18
-12 -10 -8 -8 -8 -9 -11 -8 -4 -4 -2 3 5 6 6 6 6 6 5 5 4 3 3 3 2 1 2 1 -0 -1 -2 -3 -4 -5 -8 -10 -11 -13 -17 -20 -20 -18
-9 -9 -10 -12 -11 -9 -11 -13 -9 -7 -4 2 4 3 5 6 6 6 5 4 3 3 3 3 1 1 1 0 -1 -2 -2 -3 -5 -8 -10 -11 -13 -15 -18 -17 -14 -15
-12 -13 -12 -11 -11 -8 -7 -11 -13 -12 -8 0 4 4 4 6 6 6 5 4 3 3 3 2 2 1 1 -0 -1 -2 -3 -6 -8 -10 -10 -9 -10 -11 -11 -10 -9 -11
-16 -16 -15 -11 -9 -6 -2 -5 -10 -12 -11 -3 3 5 5 6 6 5 5 4 3 2 2 2 1 0 -0 -1 -2 -3 -6 -9 -9 -8 -6 -6 -6 -7 -7 -6 -6 -7
-17 -18 -18 -13 -10 -5 -1 -3 -7 -9 -9 -4 2 5 5 6 6 5 4 3 2 2 2 1 -0 -1 -1 -2 -4 -7 -9 -10 -9 -7 -6 -6 -5 -5 -5 -5 -5 -6
-17 -17 -18 -16 -13 -8 -3 -2 -4 -5 -3 1 4 4 4 5 6 5 4 3 2 2 1 -0 -1 -2 -3 -5 -8 -10 -11 -11 -9 -7 -6 -6 -5 -5 -5 -5 -5 -5
-15 -15 -15 -15 -15 -11 -5 -1 -1 -2 0 3 4 3 3 5 5 5 4 3 2 1 -0 -1 -2 -3 -6 -10 -11 -11 -13 -14 -12 -9 -7 -6 -5 -5 -5 -5 -5 -5

ECMWFNIL_850_dewp_009.txt.gz
Dewpoint
4 4 3 2 3 4 4 4 5 3 3 4 5 5 4 -2 -6 -5 -6 -7 -7 -8 -8 -9 -10 -9 -8 -9 -6 -3 -7 -9 -7 -8 -7 -7 -9 -8 -10 -11 -11 -13
4 5 5 4 3 4 5 4 5 4 3 4 4 5 4 -2 -5 -5 -5 -6 -6 -6 -7 -7 -8 -9 -8 -8 -9 -7 -7 -8 -7 -8 -7 -7 -8 -8 -10 -10 -10 -12
5 5 5 5 3 4 5 5 5 5 3 4 4 5 3 -3 -5 -4 -5 -5 -6 -6 -6 -7 -7 -8 -9 -8 -8 -9 -8 -8 -8 -8 -8 -8 -8 -7 -8 -9 -9 -11
4 5 6 6 5 4 6 6 6 5 4 4 4 5 3 -2 -3 -3 -5 -5 -5 -6 -5 -6 -6 -6 -7 -8 -8 -8 -8 -8 -8 -8 -8 -8 -8 -8 -7 -8 -9 -9
3 5 6 6 6 6 7 6 6 6 5 5 5 5 4 -0 -2 -2 -4 -4 -5 -6 -5 -5 -6 -6 -6 -6 -6 -7 -7 -8 -8 -8 -8 -8 -8 -8 -8 -8 -8 -8
6 7 7 7 7 7 7 7 6 5 6 6 5 5 5 1 -1 -1 -2 -3 -3 -5 -5 -5 -5 -5 -6 -5 -5 -6 -5 -5 -6 -7 -7 -7 -8 -8 -8 -8 -7 -7
7 7 5 5 6 6 7 7 6 5 5 6 5 6 5 2 0 0 -0 -1 -1 -2 -3 -5 -5 -5 -5 -5 -4 -4 -4 -3 -4 -6 -4 -4 -6 -8 -8 -8 -8 -6
6 4 2 1 2 6 8 7 5 5 6 5 4 5 5 2 1 1 1 1 1 1 0 -1 -3 -3 -4 -4 -4 -4 -4 -3 -3 -4 -2 -2 -5 -7 -5 -6 -9 -7
6 1 0 1 -1 2 6 8 7 6 6 7 5 5 5 3 2 3 2 2 2 3 2 2 1 -0 -2 -3 -3 -3 -3 -3 -2 -3 -2 -2 -5 -5 -3 -4 -7 -8
7 3 3 5 5 3 4 6 7 7 6 7 7 6 6 5 4 4 4 3 3 3 3 3 3 2 -0 -2 -2 -2 -2 -2 -1 -1 -1 -2 -3 -3 -3 -4 -8 -8
7 6 6 7 7 7 7 7 8 8 6 7 8 7 6 5 5 5 5 5 4 4 4 3 2 1 1 -1 -1 -1 -1 -1 -1 -0 -1 -0 -1 -2 -3 -5 -7 -8
5 6 8 8 7 7 8 9 8 8 7 7 8 8 6 6 6 5 5 6 5 5 5 3 2 2 1 1 1 0 -0 -0 0 0 1 1 0 -1 -3 -4 -6 -8
1 3 5 7 7 6 7 9 9 8 7 7 8 8 7 6 5 5 5 6 5 5 5 5 4 3 2 2 2 2 1 1 1 1 1 1 0 -1 -2 -4 -6 -7
-4 -3 -1 1 2 2 1 3 7 9 9 8 7 7 8 6 5 5 5 6 5 5 6 6 5 4 4 3 3 3 2 2 2 1 1 1 1 -1 -3 -4 -6 -7
-4 -5 -3 -2 -3 -4 -5 -6 0 6 8 8 8 8 8 8 7 6 6 6 6 6 6 6 6 5 4 4 3 3 3 2 2 2 1 1 -0 -1 -3 -4 -6 -7
-3 -3 -2 -1 -1 -0 -1 -3 -3 1 5 7 8 8 8 8 8 7 7 7 7 6 6 6 6 5 5 3 3 3 3 2 2 2 1 0 -1 -2 -3 -4 -6 -7
-3 -3 -3 -1 1 2 3 3 3 4 5 6 7 7 7 7 8 8 7 8 7 7 6 6 5 5 4 3 3 2 2 2 2 1 1 -0 -1 -3 -4 -4 -5 -6
-6 -5 -5 -4 -2 0 2 4 5 5 6 6 6 7 6 6 7 7 8 7 7 6 6 5 5 5 5 3 3 2 2 2 2 1 0 -1 -2 -3 -4 -5 -5 -5
-5 -5 -5 -4 -3 -2 1 2 3 4 5 5 6 6 6 6 6 6 7 7 7 6 6 5 5 5 4 4 3 3 2 2 1 -0 -1 -1 -2 -3 -4 -5 -5 -6
-4 -4 -4 -4 -4 -3 -2 0 2 3 4 4 4 5 6 6 6 6 7 7 7 6 6 5 5 5 4 4 4 3 3 2 0 -1 -1 -2 -3 -3 -4 -6 -7 -7
-3 -3 -3 -3 -3 -3 -3 -1 0 2 4 4 3 4 5 5 6 6 6 6 6 6 6 5 5 5 5 4 4 3 2 2 -0 -1 -1 -2 -3 -4 -6 -7 -8 -8
-3 -3 -3 -3 -4 -3 -2 -2 -1 1 3 4 4 4 4 4 5 5 6 6 6 6 5 5 5 5 5 4 3 2 2 1 -0 -1 -2 -3 -4 -5 -5 -5 -5 -5
-2 -3 -3 -3 -3 -3 -3 -2 -1 0 2 4 4 4 4 4 4 5 5 6 6 6 5 5 5 5 4 3 2 2 1 0 -1 -2 -3 -3 -3 -4 -3 -3 -3 -4
-2 -3 -3 -3 -3 -4 -3 -3 -2 -1 1 3 3 3 4 3 4 4 4 5 6 5 5 5 5 4 3 3 2 2 1 -0 -2 -4 -4 -4 -4 -3 -3 -3 -3 -4
-2 -2 -2 -2 -2 -3 -3 -3 -2 -1 1 2 3 3 3 3 3 4 4 5 5 5 5 5 4 4 3 2 2 1 -0 -1 -4 -5 -5 -4 -5 -4 -4 -4 -3 -4
-3 -3 -2 -1 -1 -1 -2 -3 -2 -1 0 2 2 2 2 2 3 4 4 5 5 5 4 4 3 3 2 1 1 -0 -1 -3 -7 -10 -7 -5 -4 -4 -4 -4 -5 -5

ECMWFNIL_850_dewp_015.txt.gz
Dewpoint
-0 -6 -11 -9 -10 -9 -9 -11 -11 -10 -9 -8 -8 -9 -9 -9 -9 -9 -9 -8 -9 -9 -9 -9 -9 -9 -8 -8 -8 -8 -8 -9 -9 -10 -9 -10 -10 -10 -10 -11 -12 -12
3 -2 -8 -7 -8 -9 -8 -9 -11 -9 -8 -8 -8 -8 -8 -8 -8 -9 -9 -8 -8 -9 -9 -9 -9 -8 -8 -8 -8 -8 -8 -9 -10 -10 -10 -10 -11 -11 -12 -12 -13 -13
4 1 -4 -4 -4 -7 -6 -5 -6 -8 -8 -7 -6 -7 -7 -8 -8 -8 -9 -8 -8 -8 -8 -8 -8 -8 -8 -8 -8 -8 -9 -9 -10 -10 -10 -11 -11 -12 -13 -13 -13 -13
5 4 0 -1 0 -1 -2 0 0 -3 -6 -6 -5 -5 -5 -7 -8 -7 -7 -8 -8 -8 -8 -8 -8 -8 -8 -8 -8 -8 -8 -8 -9 -10 -10 -10 -10 -10 -11 -11 -11 -11
5 5 3 3 4 3 2 3 4 2 -1 -3 -4 -5 -5 -4 -6 -6 -6 -7 -7 -7 -7 -7 -7 -7 -7 -7 -8 -7 -7 -7 -8 -8 -9 -9 -9 -9 -9 -9 -9 -8
6 5 5 4 5 5 4 3 4 4 3 2 0 -2 -2 -2 -2 -3 -4 -5 -5 -5 -6 -6 -7 -7 -7 -7 -7 -7 -7 -7 -7 -7 -7 -8 -8 -8 -8 -8 -7 -7
6 6 6 5 5 5 5 5 5 5 5 5 4 3 2 2 2 1 0 -1 -2 -2 -3 -4 -5 -5 -6 -6 -6 -6 -6 -6 -6 -6 -6 -6 -6 -7 -7 -7 -7 -7
6 6 6 6 6 6 6 6 5 6 6 6 5 5 4 4 4 4 4 4 3 3 2 0 -1 -2 -4 -5 -6 -6 -6 -5 -5 -5 -5 -5 -5 -5 -5 -6 -6 -6
5 6 5 6 7 7 6 6 6 6 6 6 6 6 6 5 5 5 5 5 5 5 5 4 3 2 1 -1 -3 -4 -5 -5 -5 -4 -4 -5 -4 -5 -5 -5 -5 -5
5 5 6 6 7 7 7 7 7 7 7 6 5 5 5 5 5 5 5 5 6 6 6 6 5 4 4 3 2 0 -1 -3 -4 -3 -3 -4 -4 -3 -3 -4 -4 -4
5 6 5 5 6 6 6 6 7 7 6 6 6 5 5 4 5 5 5 6 7 7 6 6 6 6 5 5 5 4 3 1 -1 -2 -2 -3 -3 -2 -2 -3 -3 -3
6 5 5 4 3 4 4 5 6 6 5 5 4 4 4 4 5 5 5 6 6 6 6 5 6 6 6 6 5 5 5 4 3 1 -0 -1 -2 -2 -1 -1 -2 -2
6 5 5 4 3 4 5 5 5 5 3 3 3 3 3 4 4 5 5 5 6 5 5 5 5 5 6 6 6 6 6 5 5 4 3 1 1 -0 -0 -0 -1 -0
4 4 5 5 6 7 7 6 6 4 2 2 3 3 2 2 3 4 4 4 5 4 4 4 4 3 4 5 6 6 6 6 5 5 4 3 2 2 1 1 0 0
3 5 6 6 6 6 6 6 6 4 2 1 1 1 -0 -0 1 3 3 3 4 4 3 4 4 3 3 5 5 6 6 6 6 5 5 4 4 3 2 2 1 1
2 3 3 2 2 2 2 3 2 1 1 1 1 1 2 2 2 2 2 2 3 4 4 4 5 4 4 5 5 6 6 6 6 6 5 5 4 4 3 3 2 2
0 1 -1 -1 1 2 2 2 3 3 3 4 4 4 5 5 4 4 3 2 3 4 5 5 5 5 5 5 6 6 6 6 6 6 5 5 5 4 4 3 3 2
-2 -2 -3 -2 0 1 1 3 5 5 6 6 6 6 6 5 5 5 4 3 3 4 4 5 6 7 7 6 6 6 6 6 6 6 6 5 5 5 4 4 3 2
-4 -4 -5 -4 -3 -3 -2 1 3 4 4 3 3 4 5 5 5 4 4 2 1 -1 -1 -0 4 6 7 7 7 7 6 6 6 6 6 5 5 5 4 4 3 2
-6 -5 -4 -4 -4 -4 -4 -4 -2 -0 1 2 2 3 4 4 4 4 3 1 -2 -4 -6 -3 0 3 6 7 7 7 6 6 6 6 6 5 5 5 4 4 3 2
-5 -4 -4 -4 -3 -4 -7 -8 -8 -5 -3 -1 0 1 2 3 3 3 3 3 2 0 -2 -2 -1 0 2 5 7 7 7 6 6 6 6 5 4 4 3 3 2 1
-4 -3 -3 -3 -5 -8 -12 -12 -12 -10 -9 -9 -7 -3 0 2 2 2 3 3 4 3 2 1 0 -1 0 4 6 7 7 6 5 6 5 4 3 3 3 2 1 1
-4 -3 -3 -4 -7 -10 -11 -13 -15 -16 -17 -18 -15 -10 -5 -0 2 2 2 2 3 3 3 3 2 1 2 4 6 7 6 6 5 5 4 3 2 2 2 1 1 0
-4 -3 -3 -3 -5 -5 -6 -10 -14 -15 -17 -19 -20 -19 -15 -7 -1 2 2 2 2 2 3 3 3 3 4 5 6 7 6 6 5 4 3 3 2 2 1 1 -0 -0
-4 -3 -3 -3 -3 -4 -6 -8 -9 -10 -12 -15 -17 -19 -20 -12 -4 -0 1 1 2 2 2 3 3 3 4 5 5 6 6 6 5 4 3 3 2 1 -0 -1 -1 -1
-5 -4 -4 -4 -4 -6 -7 -6 -7 -8 -9 -11 -14 -17 -21 -15 -6 -1 1 1 1 2 2 2 3 3 4 4 5 6 6 6 5 4 3 3 2 0 -1 -2 -2 -2

ECMWFNIL_850_dewp_021.txt.gz
Dewpoint
2 -1 -6 -9 -10 -11 -12 -14 -13 -13 -12 -11 -11 -11 -11 -10 -8 -8 -10 -10 -9 -9 -10 -9 -9 -9 -9 -9 -9 -9 -9 -9 -9 -9 -10 -10 -9 -10 -11 -10 -11 -12
-2 -2 -5 -8 -10 -11 -11 -13 -13 -12 -12 -10 -10 -10 -10 -11 -11 -10 -10 -10 -10 -10 -10 -9 -9 -9 -9 -10 -10 -10 -11 -10 -10 -11 -10 -11 -11 -11 -12 -13 -13 -13
-2 -2 -4 -5 -8 -11 -10 -12 -12 -10 -10 -10 -9 -10 -10 -10 -10 -11 -11 -11 -11 -10 -10 -10 -10 -10 -10 -11 -11 -10 -11 -11 -12 -12 -12 -13 -13 -13 -13 -13 -13 -13
-2 -3 -1 1 -2 -6 -8 -10 -11 -10 -9 -9 -9 -9 -9 -10 -10 -10 -10 -10 -11 -11 -11 -11 -11 -11 -11 -11 -11 -11 -11 -11 -10 -10 -10 -10 -11 -10 -10 -9 -9 -10
-1 -0 2 2 -1 -3 -5 -8 -10 -10 -9 -8 -8 -9 -8 -9 -9 -9 -10 -10 -10 -10 -10 -11 -11 -11 -11 -10 -9 -9 -8 -8 -8 -8 -8 -8 -8 -8 -7 -7 -7 -7
1 3 4 2 -1 -1 -2 -5 -6 -7 -9 -8 -8 -8 -8 -9 -9 -9 -9 -9 -9 -9 -9 -9 -9 -9 -10 -9 -8 -8 -8 -7 -7 -7 -7 -7 -7 -7 -7 -7 -6 -6
2 4 5 4 2 3 2 -1 -2 -2 -4 -4 -4 -6 -8 -8 -8 -8 -8 -8 -8 -8 -8 -8 -8 -8 -8 -8 -7 -7 -7 -7 -7 -7 -7 -6 -6 -6 -7 -7 -7 -6
3 3 4 4 3 4 4 -1 -4 -0 1 1 0 -1 -3 -5 -6 -6 -7 -7 -7 -7 -7 -7 -6 -6 -6 -6 -7 -7 -7 -7 -7 -6 -6 -6 -6 -6 -6 -6 -6 -6
3 3 4 4 3 4 4 -0 -4 0 4 3 4 3 3 2 0 -1 -1 -1 -2 -3 -3 -4 -3 -3 -3 -3 -4 -5 -5 -5 -5 -5 -6 -6 -6 -5 -5 -6 -5 -5
2 3 3 4 3 4 3 -1 -4 1 5 5 5 5 5 5 4 4 3 4 3 3 3 2 2 1 1 1 1 -0 -1 -2 -2 -2 -3 -4 -5 -5 -5 -5 -5 -4
0 1 3 4 3 2 1 -2 -3 0 4 5 4 5 5 5 5 5 5 5 4 4 4 5 5 4 4 4 4 4 3 3 2 2 1 1 -1 -2 -3 -3 -3 -3
3 2 4 4 3 2 1 -0 -1 0 2 3 2 4 6 5 5 5 5 5 5 4 5 5 6 5 5 5 5 5 5 5 5 5 4 4 3 3 2 1 0 -1
6 6 6 5 4 3 2 3 3 2 3 3 1 3 6 6 6 6 6 5 5 5 5 6 6 6 6 5 5 6 6 6 6 5 6 6 5 5 5 4 4 3
7 7 7 6 5 4 4 5 5 5 5 5 3 4 6 6 6 6 6 6 6 6 6 6 7 7 6 6 6 6 6 6 5 5 5 5 6 6 5 5 5 5
5 5 5 5 5 4 5 6 6 6 6 6 5 6 6 7 6 6 6 6 5 5 5 6 7 7 6 6 6 7 6 6 6 5 5 5 6 6 6 6 6 5
6 5 5 5 5 5 5 6 6 6 6 6 6 6 6 6 6 6 6 5 4 4 4 6 7 6 6 6 6 7 7 7 7 6 6 6 6 6 7 6 6 6
7 7 6 6 6 5 5 6 6 6 6 6 6 6 6 5 5 5 4 4 4 5 6 7 7 6 6 6 6 7 7 7 7 7 7 6 6 6 6 6 6 6
6 7 7 7 7 6 6 7 7 6 6 6 6 6 6 5 4 5 4 4 5 6 6 7 7 7 7 7 7 8 8 8 7 7 7 7 7 7 7 7 7 6
5 6 7 7 6 6 6 6 6 6 6 6 6 6 6 6 6 5 5 5 6 6 7 7 6 6 5 4 4 5 6 7 8 8 8 8 8 8 8 7 7 6
3 4 4 4 4 4 4 4 4 4 4 5 5 6 6 5 5 5 5 5 6 6 6 5 4 3 1 -1 -2 -1 0 3 5 6 7 7 8 8 7 7 7 7
1 1 1 1 2 3 3 3 3 4 4 4 5 5 4 3 3 4 4 5 4 4 3 2 1 1 -1 -2 -3 -3 -3 -2 -1 -0 1 3 5 7 7 7 7 7
-2 -2 -2 -2 0 2 2 1 1 2 3 3 3 3 2 2 2 3 4 3 3 2 0 -1 -1 -1 -2 -2 -2 -2 -2 -1 -1 -1 -1 1 4 6 6 6 7 6
-4 -3 -3 -5 -4 -2 -1 -1 -1 -0 -0 0 0 0 0 0 1 1 1 0 -0 -2 -4 -4 -4 -3 -3 -3 -2 -1 0 1 1 1 1 1 3 4 5 5 6 6
-5 -5 -5 -5 -5 -4 -3 -3 -3 -3 -5 -5 -5 -5 -5 -5 -5 -5 -5 -5 -6 -5 -5 -6 -5 -2 -1 -2 -2 -1 1 2 2 1 1 0 1 2 3 4 5 6
-5 -5 -5 -4 -3 -3 -3 -3 -3 -5 -9 -12 -11 -11 -13 -13 -13 -14 -12 -11 -10 -8 -6 -6 -5 -3 -1 -2 -1 0 1 2 2 2 2 1 1 1 3 4 5 5
-5 -4 -4 -3 -3 -3 -3 -3 -3 -5 -10 -12 -12 -12 -12 -11 -11 -12 -12 -13 -14 -14 -13 -12 -10 -6 -4 -2 -0 0 1 1 2 3 3 3 3 3 4 4 5 4

ECMWFNIL_850_dewp_024.txt.gz
Dewpoint
5 6 1 -6 -3 -0 -5 -10 -10 -11 -12 -10 -10 -11 -10 -7 -3 -2 -4 -8 -10 -9 -9 -9 -9 -9 -10 -10 -10 -10 -10 -10 -10 -10 -10 -10 -10 -11 -12 -12 -12 -12
3 2 -3 -6 0 1 -6 -12 -10 -10 -11 -10 -10 -10 -10 -8 -6 -7 -9 -9 -9 -9 -9 -9 -9 -10 -10 -11 -12 -12 -12 -12 -12 -12 -12 -12 -13 -13 -14 -14 -15 -15
2 0 -3 -2 -1 -4 -9 -11 -11 -12 -11 -10 -10 -10 -10 -10 -9 -9 -9 -9 -9 -9 -8 -9 -9 -10 -11 -12 -13 -12 -13 -14 -14 -14 -14 -14 -14 -14 -14 -15 -14 -14
1 -0 -1 -2 -3 -5 -7 -8 -10 -11 -12 -11 -10 -9 -10 -10 -10 -9 -9 -9 -9 -9 -9 -9 -9 -10 -10 -11 -12 -12 -12 -11 -10 -11 -10 -10 -10 -10 -10 -10 -10 -10
1 -1 -1 -2 -2 -1 -2 -8 -10 -9 -11 -10 -10 -10 -9 -9 -9 -10 -10 -9 -9 -9 -8 -8 -8 -9 -9 -10 -10 -10 -10 -9 -8 -8 -7 -7 -7 -7 -7 -7 -7 -7
3 -1 -1 -1 -0 2 -1 -9 -10 -7 -9 -9 -10 -10 -9 -10 -9 -9 -9 -9 -9 -9 -8 -8 -8 -8 -9 -8 -9 -9 -9 -9 -8 -8 -8 -7 -7 -7 -6 -6 -6 -6
4 -0 -1 -0 2 3 -1 -9 -9 -8 -9 -9 -9 -10 -9 -9 -9 -8 -9 -8 -9 -9 -8 -9 -8 -8 -8 -8 -8 -8 -8 -8 -8 -8 -8 -8 -8 -8 -7 -7 -7 -6
4 1 1 2 3 3 -1 -7 -8 -9 -10 -8 -9 -10 -9 -9 -8 -8 -8 -8 -8 -8 -8 -8 -8 -7 -7 -7 -7 -7 -7 -7 -7 -7 -7 -7 -7 -7 -7 -7 -7 -6
5 3 4 3 3 5 2 -3 -6 -8 -9 -8 -8 -7 -7 -8 -7 -7 -7 -7 -7 -6 -6 -6 -5 -6 -5 -5 -5 -5 -6 -6 -6 -7 -7 -6 -6 -6 -6 -6 -6 -5
7 6 4 2 3 5 4 -1 -4 -6 -8 -7 -5 -4 -3 -3 -1 -1 -1 -1 -2 -1 -0 -0 -0 -0 -0 -0 -1 -1 -1 -2 -3 -3 -3 -4 -4 -5 -5 -5 -4 -4
8 6 4 3 4 6 4 2 -1 -4 -7 -5 -2 0 1 2 3 4 4 3 3 3 4 4 4 4 4 3 3 2 2 2 2 2 2 2 1 0 -1 -2 -2 -3
8 6 4 4 5 5 5 4 3 -1 -5 -5 -1 2 3 4 4 5 5 5 5 5 5 5 5 5 5 5 5 5 4 4 4 4 4 5 5 5 4 3 2 -0
8 7 6 4 4 5 5 5 4 2 -1 -4 -2 1 2 3 4 4 5 5 5 5 5 5 6 6 5 5 5 4 4 5 6 5 5 6 5 5 5 6 5 4
8 7 5 4 3 4 4 5 5 3 0 -2 -2 -1 1 2 3 4 5 5 5 6 6 5 6 6 6 5 5 4 4 6 6 6 6 6 6 5 5 6 6 5
8 7 6 6 5 5 5 5 4 4 2 2 1 -0 0 2 4 4 4 5 6 6 6 6 6 6 6 6 5 5 6 6 7 6 6 7 6 6 6 6 6 6
8 7 8 7 7 6 6 6 5 5 5 4 4 4 3 3 4 5 5 5 6 6 6 6 6 5 5 4 5 6 7 7 7 7 7 7 7 7 7 6 5 6
7 7 7 7 7 7 7 7 6 6 6 6 6 6 5 5 4 5 5 4 5 6 6 5 4 4 4 5 6 7 7 7 7 7 7 7 7 7 7 6 6 6
8 8 8 7 8 8 7 7 7 6 6 6 6 6 6 5 5 4 4 3 4 5 5 4 5 6 7 7 7 7 7 7 7 7 7 7 7 7 7 6 6 6
8 8 8 7 8 8 7 7 7 6 6 6 7 7 6 4 4 4 4 4 5 5 5 5 6 6 6 6 5 4 4 4 4 5 6 7 7 8 7 7 7 7
4 5 6 6 7 7 7 7 6 7 7 6 6 6 5 5 5 6 6 6 6 6 6 6 6 5 4 4 3 1 -0 -1 -2 -1 0 2 3 4 5 6 6 7
1 2 3 5 6 7 6 6 6 6 6 5 5 6 6 6 6 6 6 6 6 5 5 5 4 3 3 3 2 1 0 -1 -2 -3 -3 -3 -3 -3 -2 0 3 5
-1 0 2 3 4 4 5 5 5 5 5 5 6 6 5 5 4 4 4 5 4 4 4 3 3 2 2 2 2 2 1 1 0 -0 -0 -1 -2 -2 -2 -0 3 5
-4 -3 -0 1 1 2 3 4 4 4 4 4 4 4 3 2 2 2 3 3 3 3 2 2 1 0 -0 -1 -1 -0 1 1 1 1 1 1 0 -1 -1 -0 2 4
-5 -5 -3 -2 -2 -2 0 2 1 1 1 1 1 -0 -0 -0 -0 0 0 0 0 -0 -1 -2 -2 -3 -3 -3 -3 -2 -1 -1 -1 -0 1 1 0 -0 -1 -1 -0 2
-4 -4 -4 -4 -4 -4 -3 -1 -1 -2 -3 -3 -4 -4 -4 -5 -6 -7 -7 -7 -7 -7 -8 -8 -8 -8 -7 -7 -6 -4 -3 -3 -3 -2 -1 -1 -0 -1 -1 -1 0 2
-3 -3 -4 -4 -4 -3 -3 -3 -3 -5 -6 -8 -8 -9 -9 -9 -10 -11 -11 -11 -12 -12 -13 -14 -14 -14 -14 -14 -12 -9 -6 -4 -3 -1 -0 0 1 1 0 1 2 4

ECMWFNIL_850_dewp_027.txt.gz
Dewpoint
2 4 3 -2 -8 -4 0 -4 -9 -9 -12 -12 -10 -10 -7 -3 -2 -4 -7 -10 -9 -9 -9 -8 -9 -9 -9 -8 -7 -8 -9 -9 -9 -11 -10 -11 -11 -11 -12 -12 -12 -12
0 3 3 -2 -7 -2 0 -4 -9 -12 -13 -11 -10 -10 -8 -5 -4 -6 -8 -9 -9 -9 -9 -9 -9 -9 -9 -9 -9 -9 -10 -10 -11 -11 -11 -12 -12 -13 -14 -14 -14 -14
-1 2 3 -1 -5 -2 -1 -4 -10 -13 -12 -11 -11 -10 -9 -7 -7 -9 -9 -9 -8 -8 -8 -9 -10 -10 -9 -10 -10 -10 -11 -11 -12 -12 -13 -13 -13 -14 -14 -14 -13 -11
3 4 3 1 -2 -2 -1 -5 -11 -13 -12 -12 -11 -10 -10 -9 -9 -9 -9 -9 -8 -8 -8 -9 -9 -10 -9 -10 -10 -11 -11 -12 -12 -12 -12 -11 -11 -12 -12 -11 -10 -6
6 4 3 2 -0 -2 -2 -6 -11 -11 -11 -11 -11 -10 -11 -10 -10 -9 -9 -9 -9 -8 -8 -8 -9 -9 -9 -9 -10 -11 -10 -11 -11 -10 -9 -9 -8 -8 -8 -8 -7 -5
7 5 3 3 1 -2 -3 -6 -10 -9 -8 -10 -10 -11 -10 -10 -10 -10 -9 -9 -8 -9 -8 -8 -8 -9 -9 -9 -9 -9 -9 -9 -9 -9 -8 -8 -7 -7 -7 -6 -7 -6
7 5 4 3 1 -2 -2 -3 -9 -9 -7 -9 -10 -10 -10 -10 -10 -9 -9 -9 -9 -9 -8 -8 -8 -8 -8 -8 -8 -8 -8 -8 -8 -8 -8 -8 -8 -7 -7 -7 -7 -6
7 6 6 4 2 -1 -0 -1 -6 -9 -7 -8 -9 -9 -9 -9 -9 -9 -9 -8 -8 -8 -8 -8 -8 -8 -8 -7 -7 -7 -7 -7 -7 -7 -7 -7 -6 -7 -7 -6 -6 -6
7 7 6 5 4 0 1 1 -4 -10 -7 -8 -9 -8 -9 -9 -9 -9 -8 -8 -8 -7 -8 -7 -7 -7 -6 -6 -6 -6 -6 -6 -6 -6 -6 -6 -6 -5 -5 -5 -5 -5
8 8 7 7 5 2 2 2 -3 -9 -8 -9 -9 -8 -8 -9 -9 -9 -8 -8 -7 -6 -6 -5 -5 -4 -3 -2 -2 -2 -2 -3 -3 -4 -4 -3 -3 -3 -3 -3 -4 -4
8 8 8 7 6 3 3 3 -0 -4 -6 -8 -9 -8 -8 -7 -7 -8 -7 -6 -5 -2 -1 0 1 1 2 2 2 2 2 2 1 0 0 0 1 1 1 0 -1 -2
9 9 8 8 7 5 4 4 3 2 -1 -4 -6 -7 -5 -4 -4 -3 -2 -2 -1 1 3 4 3 4 4 5 5 5 5 4 4 4 4 4 4 3 3 3 3 2
10 9 9 8 7 5 4 4 5 5 3 1 -3 -5 -2 1 1 1 2 2 3 3 4 4 4 4 5 5 5 5 5 5 5 5 5 5 5 5 5 5 5 5
10 9 9 8 7 5 4 5 6 5 5 4 1 -3 -1 3 4 4 4 4 4 5 5 5 5 5 5 6 6 5 5 5 5 6 6 6 6 5 6 6 6 6
9 9 9 8 7 6 5 5 6 6 5 6 4 1 -1 2 4 4 5 5 5 5 5 5 5 5 5 5 5 5 5 5 6 6 6 7 6 6 6 6 6 6
8 8 8 8 7 7 5 4 4 5 5 6 5 4 3 3 3 3 4 5 5 5 5 6 6 6 5 5 4 5 5 5 5 5 6 6 6 6 6 7 7 7
7 8 8 8 7 7 7 6 5 6 6 6 6 5 5 5 4 4 4 5 6 6 6 6 6 6 6 4 4 4 4 4 4 4 5 5 5 5 6 6 6 6
8 8 7 7 7 8 8 7 7 7 6 6 6 6 6 6 6 6 6 6 6 5 5 5 5 5 5 4 3 3 3 4 5 5 5 5 6 6 6 6 6 6
8 8 8 8 8 8 8 8 8 7 7 7 6 7 7 6 7 6 6 5 5 5 4 4 4 5 4 4 4 4 5 5 6 5 4 3 3 3 4 5 7 7
5 6 7 8 8 8 8 8 7 7 7 7 6 7 6 5 5 5 4 3 4 5 5 4 5 5 5 4 5 5 5 4 3 1 -1 -2 -3 -3 -3 -1 3 5
-0 2 3 4 6 6 7 7 7 7 7 7 7 7 6 5 4 4 4 5 5 5 5 6 6 6 5 5 5 4 3 1 -1 -3 -4 -5 -6 -6 -6 -5 -4 -1
-3 -3 -2 0 3 5 6 6 7 7 7 7 6 6 5 5 5 5 5 6 6 6 6 6 5 5 4 4 3 3 1 -0 -2 -3 -3 -3 -3 -3 -3 -3 -3 -3
-3 -4 -4 -2 0 3 4 4 5 5 5 5 5 5 5 5 5 5 5 5 5 5 5 4 4 3 3 3 2 2 1 0 -1 -1 -1 0 0 0 -1 -2 -1 -1
-3 -4 -4 -4 -2 -1 -0 1 3 3 3 4 5 5 5 5 4 3 4 4 4 4 3 3 2 2 1 1 0 1 1 0 -0 -0 1 1 1 1 0 -1 -1 -1
-3 -4 -4 -4 -4 -3 -3 -2 0 2 2 2 3 3 3 3 2 2 2 2 2 2 1 1 -0 -1 -1 -1 -1 -0 0 0 0 -0 0 0 1 1 1 -1 -2 -2
-3 -3 -3 -3 -4 -4 -3 -3 -2 -1 -1 -0 -1 -1 -1 -1 -1 -1 -1 -2 -2 -3 -4 -5 -6 -6 -7 -7 -7 -5 -4 -2 -1 -0 -1 -1 -0 -0 -1 -2 -3 -3

ECMWFNIL_850_dewp_030.txt.gz
Dewpoint
5 5 4 -1 -7 -2 -3 -6 -7 -9 -7 -5 -4 -3 -4 -8 -9 -10 -10 -10 -11 -11 -11 -10 -12 -11 -12 -9 -0 4 1 -1 -2 -4 -7 -8 -8 -4 -0 1 1 -0
6 6 4 -2 -5 -1 -3 -7 -7 -10 -12 -11 -9 -8 -10 -12 -10 -10 -10 -10 -10 -9 -10 -9 -10 -10 -9 -9 -7 -4 -6 -9 -9 -10 -11 -11 -11 -11 -9 -9 -12 -12
6 6 5 -1 -4 -1 -3 -5 -6 -11 -13 -13 -12 -10 -12 -11 -9 -10 -9 -9 -9 -9 -10 -9 -9 -10 -9 -9 -10 -9 -10 -11 -11 -12 -12 -12 -12 -13 -15 -15 -14 -12
6 5 5 1 -3 -2 -2 -4 -7 -12 -13 -13 -13 -11 -12 -11 -9 -10 -9 -9 -9 -8 -10 -10 -10 -10 -10 -11 -10 -11 -12 -12 -13 -14 -13 -14 -14 -15 -14 -12 -9 -6
5 4 5 3 -2 -2 -1 -4 -8 -12 -13 -13 -13 -11 -11 -10 -9 -9 -9 -9 -9 -9 -10 -10 -11 -11 -11 -12 -12 -12 -13 -13 -13 -13 -12 -14 -13 -13 -11 -7 -5 -3
5 3 5 5 1 -2 -2 -4 -9 -11 -11 -12 -11 -12 -11 -10 -10 -10 -9 -9 -8 -8 -9 -9 -10 -11 -11 -11 -11 -11 -10 -9 -10 -9 -9 -9 -9 -9 -8 -5 -4 -3
6 5 5 6 3 -1 -2 -3 -8 -10 -9 -11 -11 -11 -11 -11 -10 -10 -9 -9 -9 -8 -8 -9 -9 -9 -9 -9 -9 -9 -8 -8 -8 -5 -4 -7 -7 -7 -7 -5 -4 -4
7 7 6 6 4 0 -1 -2 -5 -8 -9 -9 -10 -10 -10 -10 -9 -10 -10 -9 -9 -9 -8 -8 -8 -8 -8 -8 -8 -8 -8 -7 -6 -3 -2 -6 -7 -5 -6 -6 -5 -6
8 8 7 7 5 2 -1 -1 -2 -6 -9 -8 -9 -9 -9 -10 -9 -9 -9 -9 -8 -9 -8 -8 -8 -7 -7 -7 -6 -6 -6 -7 -6 -4 -4 -5 -4 -2 -3 -5 -5 -5
10 8 8 7 6 5 2 1 1 -3 -8 -8 -8 -9 -9 -9 -9 -9 -8 -8 -8 -8 -8 -8 -7 -7 -6 -5 -5 -4 -3 -4 -5 -5 -4 -3 -1 0 -1 -2 -3 -3
10 8 8 7 7 6 5 3 2 -0 -6 -8 -7 -8 -8 -8 -9 -9 -8 -8 -7 -7 -6 -7 -6 -5 -4 -3 -2 -2 -1 -0 -1 -1 -2 -1 0 0 0 0 0 -0
9 9 8 7 7 7 6 4 3 2 -1 -6 -7 -6 -7 -8 -7 -8 -8 -5 -2 -0 -1 -2 -2 -2 -0 1 1 2 2 2 2 2 2 1 2 2 2 2 2 3
10 9 8 8 8 8 8 6 4 4 3 -1 -4 -5 -5 -5 -4 -4 -3 -1 3 3 2 1 1 2 3 3 4 4 4 5 5 5 5 5 4 4 4 4 4 5
10 10 9 9 9 9 8 7 5 5 5 3 0 -2 -2 -3 -1 1 2 2 3 4 3 3 3 4 4 5 5 5 5 5 5 5 5 5 6 6 6 5 5 5
10 10 10 9 9 9 8 7 6 5 5 5 4 2 1 0 -0 2 4 5 4 4 5 4 4 5 5 5 5 6 6 6 5 5 5 6 6 7 6 6 6 6
10 10 10 9 9 8 7 6 6 6 5 6 6 5 5 4 2 1 3 5 5 5 6 5 5 5 5 5 5 6 6 6 4 4 4 5 6 6 6 7 7 7
9 9 9 9 9 9 8 6 6 6 6 6 7 6 7 6 4 3 3 4 5 5 5 5 5 5 5 5 5 6 6 5 4 3 4 4 5 5 5 7 7 8
9 9 9 9 9 9 8 8 7 6 6 6 6 7 7 7 6 5 5 5 5 5 5 5 5 5 5 5 5 5 6 5 4 4 3 3 4 5 6 8 8 8
8 8 9 9 9 8 8 8 7 7 7 6 7 7 7 7 6 6 6 6 6 7 7 6 6 6 5 5 5 5 5 5 4 3 4 5 5 6 7 7 7 7
3 5 6 7 7 8 8 8 8 8 8 7 7 7 7 6 6 6 6 6 5 6 7 7 6 6 6 5 5 4 4 4 3 3 5 6 5 5 4 2 2 4
-1 -0 1 2 3 4 6 7 7 8 8 7 7 7 6 6 5 5 5 5 5 5 6 6 6 5 5 4 4 4 4 3 4 4 5 5 4 1 -1 -4 -5 -4
-2 -3 -3 -2 -1 0 2 4 6 7 7 7 7 7 6 5 5 5 6 6 5 4 4 5 5 5 4 4 4 4 4 4 4 4 5 4 1 -1 -2 -4 -6 -6
-2 -3 -3 -4 -3 -2 0 1 3 4 5 5 5 6 5 4 5 5 6 6 6 5 5 5 5 5 5 5 5 4 4 3 3 4 4 2 -0 -1 -2 -4 -6 -5
-2 -3 -3 -4 -4 -2 -1 -1 -1 1 3 3 4 5 5 4 5 6 6 6 6 6 5 5 5 5 5 5 4 4 3 2 3 4 4 2 -0 -1 -2 -4 -5 -6
-2 -2 -3 -4 -4 -3 -3 -3 -3 -1 0 1 2 4 5 5 5 5 5 5 6 5 5 4 4 4 4 3 3 3 2 1 3 4 4 3 2 1 -1 -4 -5 -6
-2 -2 -2 -2 -3 -4 -4 -4 -4 -3 -2 -1 1 3 5 4 4 4 4 4 3 3 4 4 3 3 3 2 2 1 1 1 2 3 3 3 3 2 0 -2 -4 -5

ECMWFNIL_850_dewp_033.txt.gz
Dewpoint
8 6 3 3 4 5 6 5 4 5 5 7 8 8 9 7 2 -2 -5 -7 -7 -9 -11 -10 -6 -1 4 6 6 7 7 5 5 4 4 3 3 4 6 6 6 5
8 9 7 6 7 6 4 3 3 5 5 7 8 8 7 1 -7 -11 -12 -10 -9 -11 -9 -6 -3 2 4 4 4 4 2 -1 -1 -1 -2 -2 -4 -3 -1 -0 1 2
8 9 8 8 7 4 0 -2 -0 2 4 6 7 7 3 -5 -9 -8 -7 -7 -8 -10 -8 -8 -5 1 1 0 1 1 -5 -7 -6 -6 -7 -7 -8 -9 -8 -8 -2 2
8 9 9 8 5 -0 -3 -2 -2 -1 1 4 5 4 -1 -7 -8 -8 -8 -8 -9 -10 -10 -11 -7 -3 -4 -3 -2 -4 -9 -10 -10 -11 -10 -11 -12 -12 -11 -8 -1 2
8 9 8 6 1 -4 -4 -1 -2 -2 2 3 2 1 -3 -7 -6 -5 -6 -6 -7 -8 -9 -11 -10 -8 -8 -5 -5 -8 -8 -8 -11 -11 -10 -14 -15 -13 -11 -7 -3 -1
7 8 7 3 -0 -2 -1 -1 -3 -2 2 1 -0 1 -1 -5 -2 -0 -1 -2 -3 -4 -7 -10 -12 -10 -9 -9 -8 -5 -3 -6 -9 -7 -7 -9 -8 -7 -5 -3 -2 -3
7 8 6 3 2 2 -0 -1 -2 -2 -1 -1 0 2 -1 -1 1 2 1 1 -0 -1 -3 -7 -11 -12 -10 -7 -4 -1 -1 -5 -5 -2 -1 -4 -3 -1 -0 1 1 -1
7 8 6 4 5 4 1 -0 0 -0 -5 -7 -1 1 -0 1 2 1 2 3 2 1 -0 -2 -6 -8 -4 -1 -2 -4 -5 -4 0 1 -1 -3 -2 1 1 0 1 1
8 8 7 6 6 4 4 5 4 2 -4 -9 -2 1 2 3 2 0 1 2 2 2 1 0 -0 -2 -1 -1 -4 -7 -6 -2 2 1 -2 -3 -0 1 0 -2 -1 -1
10 9 9 9 8 4 5 7 6 4 0 -2 1 2 3 4 2 1 2 2 2 3 2 2 2 -1 -0 -0 -4 -5 -4 -4 -2 -1 -3 -2 1 1 1 0 -0 -1
10 10 10 10 8 5 5 7 7 6 4 3 3 3 3 4 3 2 2 2 2 2 2 3 2 0 1 1 -2 -2 -1 -2 -2 -1 -2 0 2 2 2 2 1 1
11 11 10 10 9 8 8 8 8 7 6 4 4 4 3 4 3 2 2 2 2 2 2 3 2 1 2 2 -1 -2 -0 -0 1 0 -0 2 3 2 2 3 3 4
10 10 10 10 9 9 9 9 8 8 7 5 4 5 4 4 4 3 2 2 2 2 2 2 3 2 3 3 2 1 0 1 2 3 3 4 5 4 4 4 4 5
10 10 10 10 10 9 9 9 8 8 8 7 6 5 5 5 4 4 4 3 3 3 2 3 3 3 4 4 4 4 4 4 4 5 5 6 6 5 6 6 6 6
10 9 10 10 10 9 9 9 9 8 9 8 7 6 6 5 5 5 5 4 4 4 4 4 4 4 5 5 6 6 7 6 6 6 7 7 6 6 7 6 7 7
10 9 10 10 9 9 9 9 9 9 8 9 8 7 6 5 5 5 6 6 6 6 6 6 6 6 6 6 6 7 8 8 8 6 6 7 7 7 8 7 7 7
9 9 9 9 9 9 9 9 9 9 8 8 9 9 8 7 6 6 6 6 6 7 7 7 7 7 6 5 5 6 7 7 7 6 6 7 6 7 7 7 7 7
9 8 8 8 9 9 9 9 9 9 9 8 8 9 9 8 7 7 7 7 7 7 8 8 8 6 5 5 5 5 6 6 6 6 6 6 6 5 5 6 7 7
7 8 8 8 8 8 9 8 9 9 9 8 8 8 8 7 7 7 7 7 7 7 8 9 8 7 5 6 6 5 5 5 6 6 7 7 7 6 5 6 7 6
4 5 7 7 7 8 8 8 8 9 9 8 8 8 7 7 8 7 7 8 7 7 7 8 8 7 5 5 6 5 5 6 5 6 8 8 8 7 6 7 7 5
1 2 3 4 6 7 7 7 8 9 9 8 8 8 7 7 7 7 7 7 7 7 7 7 7 7 6 6 6 5 6 6 6 6 6 6 6 5 5 6 5 4
1 1 1 2 3 4 5 6 7 7 8 8 7 7 7 7 6 6 5 6 6 7 7 7 8 7 7 7 6 6 6 6 5 5 5 5 5 5 5 5 4 4
1 1 1 1 1 1 2 4 6 7 8 8 7 6 6 5 5 5 5 5 6 6 6 7 7 7 7 6 6 5 5 4 5 5 5 5 5 5 5 5 4 2
-0 0 1 1 1 1 2 3 4 4 5 7 7 7 6 5 5 5 5 6 7 7 7 7 7 7 6 5 5 5 4 5 6 5 4 5 5 5 5 4 -0 -4
-2 -1 0 1 1 1 2 2 2 2 3 4 6 6 7 7 7 7 7 7 7 7 7 7 7 6 5 5 5 5 5 5 6 4 4 5 5 5 5 1 -6 -8
-3 -2 -1 0 1 1 2 2 1 1 2 3 4 4 5 6 7 8 7 7 6 6 6 7 6 5 4 5 5 5 5 4 4 3 4 4 4 5 5 1 -7 -8

ECMWFNIL_850_dewp_036.txt.gz
Dewpoint
4 -5 -6 -1 3 6 7 7 6 6 7 8 8 9 9 8 7 7 7 7 6 4 3 2 2 5 7 7 8 8 7 5 4 6 5 4 5 6 6 6 5 4
3 -6 -9 0 6 7 6 5 5 6 7 8 8 8 7 6 2 0 1 2 1 1 3 4 4 5 6 7 7 6 5 4 3 2 0 -2 -0 2 2 2 2 1
3 -2 -3 3 7 6 4 2 2 6 8 8 8 6 4 0 -4 -3 -0 -0 -1 -1 1 4 4 4 4 4 4 4 3 2 1 -1 -3 -5 -5 -2 1 1 2 1
7 5 4 6 7 4 1 -2 -1 3 6 7 7 4 -0 -6 -8 -5 -3 -5 -7 -8 -4 2 4 3 3 2 1 1 -1 -2 -3 -5 -5 -5 -5 -2 3 4 4 3
9 9 8 8 6 1 -3 -2 -1 0 4 6 4 2 -3 -9 -8 -8 -9 -9 -10 -12 -9 -4 -1 1 2 -0 -4 -6 -7 -7 -6 -10 -10 -8 -8 -4 2 4 3 2
10 9 9 8 5 -1 -3 -0 -1 -1 2 3 1 2 -3 -7 -4 -5 -8 -8 -11 -13 -11 -9 -5 -2 -1 -3 -5 -6 -8 -9 -7 -8 -7 -5 -6 -3 1 1 0 1
10 10 10 7 2 -1 -0 1 -1 -1 1 -1 -0 3 -0 -2 1 -0 -3 -4 -6 -5 -6 -7 -4 -4 -4 -2 -0 -2 -5 -5 -2 -3 -5 -3 -1 1 2 -0 -3 -2
10 10 9 6 1 1 3 1 -1 -2 -3 -2 2 3 0 1 3 1 1 -0 -1 -1 -3 -5 -4 -4 -0 2 -0 -3 -1 1 1 -2 -6 -2 1 1 -0 -2 -5 -5
9 9 8 5 2 3 3 1 0 -3 -9 -5 1 0 -0 3 3 1 2 2 0 -0 -1 -1 -2 -3 1 -0 -6 -5 -0 2 1 -3 -4 -1 0 -2 -4 -5 -5 -5
9 9 8 5 3 4 4 3 3 -1 -11 -7 -1 -3 0 4 2 1 3 2 2 1 -0 0 -2 -6 -6 -10 -14 -8 -4 -1 -1 -5 -5 -2 -1 -1 -3 -5 -5 -5
10 10 9 7 6 5 6 6 6 3 -4 -3 0 -0 2 4 1 1 3 2 2 2 0 1 -3 -10 -11 -12 -13 -12 -10 -6 -5 -6 -5 -3 -1 0 -2 -4 -4 -4
10 10 10 10 8 6 7 8 7 5 3 2 3 2 3 4 2 1 3 2 2 2 2 2 -2 -6 -8 -9 -10 -10 -9 -7 -7 -6 -5 -5 -3 -1 -1 -3 -4 -4
10 10 10 11 9 6 6 8 7 6 5 3 4 4 3 4 2 1 2 2 1 2 2 3 1 -1 -2 -2 -4 -6 -7 -7 -7 -6 -6 -6 -5 -4 -4 -3 -4 -2
10 10 10 10 10 8 8 8 8 8 6 5 5 4 3 3 3 3 2 1 2 1 1 2 3 1 1 2 1 -3 -5 -5 -6 -6 -6 -5 -4 -4 -2 -0 -0 2
10 10 10 10 10 9 9 8 8 8 7 5 4 5 5 4 4 4 2 1 2 2 1 2 2 2 2 3 2 1 -1 -3 -4 -4 -3 -1 0 1 3 5 5 5
10 10 10 10 10 10 9 9 8 8 8 7 5 5 5 5 5 4 4 2 2 2 3 2 2 3 3 3 3 3 3 2 0 -0 1 4 6 5 5 7 7 7
9 10 10 9 9 9 9 9 8 8 7 6 6 6 6 6 5 5 5 4 3 3 4 4 3 4 3 4 4 4 5 5 4 3 5 6 7 7 7 7 7 7
8 9 9 8 8 8 8 8 8 8 8 7 7 7 6 6 6 5 5 5 5 4 4 5 5 4 4 5 5 5 5 6 5 5 6 6 7 8 8 7 6 6
7 8 8 8 8 8 8 7 7 8 8 8 7 6 5 5 6 5 5 5 6 5 5 6 6 5 4 5 6 6 6 6 6 6 6 6 6 7 8 7 6 5
4 6 7 7 8 8 8 7 6 5 6 7 6 5 5 6 6 6 5 5 6 6 6 6 7 6 5 4 3 4 5 6 6 6 6 6 6 7 7 7 6 6
2 3 3 4 6 7 7 7 7 6 7 7 7 7 8 7 7 7 6 6 5 5 6 7 7 6 5 4 2 2 4 5 5 6 6 7 6 6 6 5 5 6
1 1 2 2 3 4 4 5 6 7 7 7 6 6 7 7 7 7 6 6 6 6 6 7 7 7 6 6 4 3 3 4 4 4 5 6 6 6 6 5 5 6
0 1 1 2 2 2 2 3 5 6 7 7 5 5 5 6 6 6 6 6 6 6 6 6 7 7 7 7 6 4 4 5 5 5 5 6 6 6 6 6 6 6
-2 -1 -0 1 1 2 2 2 3 4 5 5 5 5 6 6 6 6 6 6 5 5 5 6 7 8 8 7 7 6 6 6 7 7 6 6 6 6 6 6 6 6
-4 -3 -2 -1 -0 1 2 2 3 2 2 3 3 4 5 6 6 6 6 5 5 6 6 7 7 8 7 6 6 6 6 7 7 7 7 6 6 6 6 6 5 5
-8 -5 -3 -2 -2 -1 -1 0 1 2 2 2 2 3 4 4 5 5 6 6 6 6 6 6 6 6 5 5 5 6 7 7 7 6 6 6 5 6 5 5 5 4

ECMWFNIL_850_dewp_042.txt.gz
Dewpoint
6 5 2 -5 -10 -12 -8 -3 -1 2 4 5 6 5 5 6 7 8 9 8 7 7 7 7 6 6 5 2 2 2 3 4 4 6 7 7 7 7 7 8 9 9
8 7 3 -7 -13 -9 -5 -1 0 3 5 6 7 6 4 4 4 5 7 8 7 6 7 7 7 7 5 2 3 3 4 5 5 6 7 7 6 6 7 7 8 8
9 9 4 -8 -11 -5 -2 1 3 5 6 7 7 6 5 5 2 2 4 5 6 5 6 7 7 7 5 2 4 6 6 6 6 6 6 6 6 6 6 6 7 7
9 8 4 -4 -5 -2 -0 1 3 5 6 7 7 7 7 5 -1 -4 -1 2 2 2 4 6 6 7 6 4 4 6 7 6 6 6 6 6 6 5 5 5 5 6
9 8 4 -2 -3 -1 -1 0 1 4 6 6 7 7 6 2 -8 -11 -7 -6 -7 -6 0 5 6 7 7 6 4 4 6 7 7 7 6 6 6 5 4 3 3 4
9 8 4 -2 -3 -2 -1 -0 -0 2 4 5 4 2 -1 -7 -15 -14 -12 -12 -12 -10 -6 -0 4 6 7 7 4 2 3 5 7 8 7 5 6 5 3 2 2 2
8 7 4 0 -1 -0 1 0 -1 1 2 2 -0 -6 -12 -14 -13 -12 -12 -11 -10 -10 -10 -8 -3 1 3 4 2 -1 -0 1 4 6 6 5 5 5 3 2 1 2
8 6 5 4 3 3 3 0 -1 0 0 -1 -5 -12 -16 -13 -11 -11 -10 -10 -9 -8 -9 -10 -9 -7 -5 -3 -3 -4 -3 -2 1 3 1 -0 0 2 3 2 1 1
8 7 7 7 6 6 4 0 -1 1 -1 -4 -8 -13 -12 -8 -6 -6 -7 -8 -8 -6 -7 -9 -9 -11 -12 -9 -7 -8 -8 -5 -2 -1 -4 -5 -5 -5 -3 -2 -1 1
8 7 8 8 7 7 5 0 0 2 -1 -4 -8 -11 -6 -2 -1 -2 -3 -5 -6 -6 -6 -8 -8 -9 -10 -8 -7 -9 -11 -8 -5 -5 -5 -4 -4 -5 -6 -6 -4 -3
8 7 7 8 9 8 5 1 2 2 -1 -4 -6 -6 -1 2 1 0 0 -1 -4 -7 -7 -6 -6 -6 -5 -4 -4 -6 -6 -6 -5 -4 -3 -3 -3 -4 -4 -5 -5 -5
7 6 5 8 9 6 3 2 2 2 -1 -4 -4 -1 2 3 2 1 1 1 -1 -5 -7 -5 -4 -4 -2 -0 -1 -3 -2 -1 -1 -2 -3 -3 -4 -5 -5 -5 -5 -5
8 7 5 7 7 5 3 3 3 2 1 -1 -1 1 3 3 2 1 1 1 1 -1 -3 -3 -4 -4 -1 1 -1 -2 -2 -1 0 -1 -3 -4 -4 -6 -6 -5 -5 -5
9 8 6 6 6 4 4 4 4 4 2 1 1 2 3 4 3 1 1 2 2 1 1 0 -2 -5 -3 -1 -2 -3 -2 -1 -1 0 -1 -2 -3 -4 -5 -4 -4 -4
8 8 7 6 6 5 5 6 6 5 3 1 3 2 2 4 3 1 2 3 2 2 2 2 1 -3 -5 -4 -5 -5 -3 -2 -1 -0 -0 -1 -2 -3 -4 -4 -4 -4
7 7 6 6 7 5 6 7 7 6 4 3 4 3 2 4 4 2 2 3 2 2 1 2 3 1 -1 -2 -4 -5 -4 -3 -2 -0 1 -0 -2 -3 -4 -5 -5 -5
8 8 7 7 6 6 6 7 7 6 5 4 4 4 3 4 4 3 2 2 2 2 2 2 2 2 2 1 0 -1 -1 -2 -2 -1 0 -0 -1 -2 -4 -5 -5 -5
9 9 8 7 7 7 8 8 7 6 6 5 4 5 5 4 4 3 3 3 3 2 2 2 2 2 3 3 2 2 1 1 0 0 1 0 -1 -1 -2 -3 -3 -3
9 9 8 8 8 8 8 7 7 6 7 6 5 5 6 6 5 3 3 4 4 3 2 2 3 3 3 3 3 2 2 2 2 2 2 2 1 1 1 0 0 1
6 6 7 7 8 7 7 6 6 6 6 6 6 5 5 6 6 5 4 4 4 4 3 2 3 3 4 3 3 3 3 3 3 3 4 3 3 3 3 3 3 3
3 4 5 5 6 6 6 5 5 5 5 5 5 5 5 6 7 6 5 5 5 5 4 3 3 3 4 4 4 4 4 4 4 4 4 4 4 4 5 5 5 5
2 3 3 3 4 4 5 5 5 5 5 5 6 6 6 6 6 6 6 6 6 6 5 5 4 4 4 4 4 4 5 5 5 5 5 5 5 5 6 6 5 5
2 2 2 2 3 3 3 4 5 5 5 5 5 5 5 5 4 4 4 5 5 6 6 6 5 5 5 5 5 5 5 5 5 6 6 6 6 6 7 7 6 6
-0 0 1 1 1 2 2 3 3 3 4 4 4 3 3 4 4 4 4 3 4 5 6 7 7 6 6 6 6 6 6 6 6 6 6 6 7 7 7 6 7 6
-3 -3 -2 -2 -1 -0 0 1 2 2 3 3 3 3 3 2 2 2 2 3 3 4 5 6 6 6 6 6 6 7 7 6 6 6 6 6 6 7 7 7 7 7
-10 -10 -10 -9 -8 -6 -5 -3 -2 -1 -0 1 2 3 3 2 2 1 0 0 1 2 3 4 4 5 5 5 5 5 5 5 5 5 5 5 5 6 7 7 7 7

ECMWFNIL_850_dewp_045.txt.gz
Dewpoint
10 9 5 -1 -1 -1 -5 -6 -5 -3 1 3 4 6 6 6 8 9 9 8 8 8 8 7 6 4 3 3 3 4 4 4 6 6 6 7 7 7 7 7 8 8
9 7 4 2 1 -2 -7 -6 -3 -2 2 4 5 6 5 5 6 8 9 9 8 8 8 7 6 4 3 2 2 2 2 3 5 6 7 7 7 6 6 6 7 8
7 6 6 5 1 -5 -6 -4 -3 -1 3 5 6 6 7 6 4 4 6 8 8 7 7 7 6 4 2 1 2 2 2 3 4 6 7 6 6 6 6 6 7 7
7 8 9 6 -2 -7 -5 -4 -3 0 4 6 6 7 7 7 5 1 1 5 7 6 6 8 8 4 2 2 3 4 4 5 5 6 6 6 6 6 6 7 7 7
9 9 9 6 -3 -8 -5 -3 -2 2 4 6 7 7 7 7 6 0 -6 -1 4 3 3 6 8 5 2 3 5 6 6 6 6 6 6 6 6 6 6 6 7 7
9 9 8 5 -2 -2 -1 -2 -0 2 4 6 6 7 7 6 3 -4 -9 -7 -3 -1 2 6 8 6 3 3 6 7 7 7 7 7 6 6 5 5 5 5 6 6
9 8 7 4 1 4 4 1 1 2 3 5 5 6 4 -1 -7 -13 -13 -11 -10 -4 3 7 8 8 6 4 4 6 7 8 7 6 5 6 5 4 3 3 5 6
8 8 7 3 2 5 6 4 3 2 3 5 5 4 -1 -10 -13 -13 -13 -11 -11 -6 -0 4 6 8 8 6 2 2 5 7 7 6 4 4 4 3 2 2 4 5
7 7 5 2 2 5 6 6 5 3 3 4 3 -1 -9 -14 -11 -11 -12 -11 -9 -8 -6 -3 1 3 5 5 1 0 2 4 6 6 5 4 3 3 2 2 2 4
8 7 5 4 5 6 7 7 5 3 2 1 -2 -7 -12 -11 -9 -10 -9 -10 -9 -7 -7 -7 -6 -6 -3 -1 -1 -1 -0 0 3 5 5 4 4 3 2 1 1 2
7 7 6 6 7 7 7 7 5 3 2 -1 -5 -9 -9 -7 -7 -8 -8 -8 -8 -6 -6 -6 -6 -9 -10 -7 -6 -5 -5 -3 -0 3 3 2 1 1 2 2 1 1
7 7 7 8 8 7 7 6 4 3 3 0 -3 -5 -5 -4 -3 -4 -4 -4 -6 -7 -7 -5 -4 -6 -7 -6 -7 -9 -11 -7 -3 -2 -1 -1 -2 -2 -0 0 0 1
8 7 7 7 8 8 6 4 4 5 4 1 -1 -1 -2 -0 0 -1 -1 -0 -2 -5 -7 -6 -4 -3 -3 -4 -4 -6 -9 -11 -7 -5 -3 -2 -1 -2 -2 -2 -2 -1
8 8 7 6 7 8 5 3 4 6 5 3 2 2 1 2 2 1 1 1 1 -1 -3 -4 -4 -3 -2 -2 -2 -3 -6 -8 -7 -4 -2 -1 -0 -0 -2 -2 -2 -2
8 8 7 6 6 7 5 3 4 6 6 5 5 4 3 4 3 2 1 1 2 1 1 1 -0 -2 -3 -3 -2 -2 -3 -3 -2 -1 -0 -0 -0 -1 -3 -3 -3 -3
9 8 8 7 7 6 5 4 5 6 6 5 5 5 4 3 4 3 1 1 2 2 2 2 2 0 -3 -5 -5 -3 -2 -1 -0 -0 -0 -1 -1 -2 -3 -4 -5 -5
9 8 8 8 8 7 5 5 6 6 6 5 5 5 4 3 4 4 2 2 2 2 2 2 2 2 1 -2 -4 -4 -4 -3 -1 -0 -0 -1 -1 -2 -3 -4 -5 -5
9 9 8 8 7 7 6 6 7 6 6 5 5 5 4 3 4 4 3 2 2 2 2 2 2 2 2 2 1 0 -2 -2 -2 -2 -2 -2 -1 -2 -2 -3 -4 -4
9 9 8 8 7 7 7 7 7 7 6 5 5 6 6 5 4 4 4 3 3 2 2 3 2 2 2 2 2 2 2 1 1 0 -1 -2 -3 -3 -3 -4 -4 -4
8 8 8 8 8 8 8 8 8 8 7 6 5 5 6 6 6 5 5 4 4 3 3 3 3 3 3 3 3 3 3 3 3 3 2 1 1 0 -1 -1 -1 -1
7 7 8 8 8 8 8 7 7 8 8 7 6 5 5 6 6 6 6 5 5 4 4 4 4 3 3 3 3 3 3 3 3 3 3 3 3 3 3 3 3 3
4 5 5 6 7 7 7 7 7 7 7 7 6 6 6 6 6 6 6 6 6 5 5 5 5 5 4 4 4 4 4 4 3 3 3 3 3 3 4 4 4 4
1 2 3 4 4 5 6 6 6 7 7 6 6 6 6 6 6 6 6 6 6 6 6 5 5 5 5 5 6 5 5 5 4 4 4 5 5 5 5 5 5 5
-1 -1 0 1 2 3 4 4 5 5 5 5 5 5 5 5 5 5 5 4 5 5 5 5 5 6 6 6 6 7 7 7 7 6 6 6 6 6 6 6 6 6
-4 -3 -2 -1 -1 -0 1 1 2 2 3 3 3 4 4 4 4 4 4 4 4 4 4 4 4 5 6 6 6 7 7 8 8 7 7 7 7 7 7 7 7 6
-5 -4 -4 -4 -4 -4 -4 -3 -3 -1 -0 1 1 2 3 3 3 3 3 3 3 3 3 3 3 3 4 6 6 6 7 7 7 7 7 7 7 7 7 7 7 6

ECMWFNIL_850_dewp_048.txt.gz
Dewpoint
9 9 9 9 7 1 -4 -5 -4 -3 1 4 5 5 5 5 6 6 6 6 6 7 7 8 8 7 6 7 8 7 6 6 6 6 7 7 7 7 8 9 9 9
10 9 10 9 5 -1 -2 -1 -1 -0 2 4 5 6 5 4 5 6 6 7 8 7 8 8 8 7 5 6 6 6 5 5 5 6 6 6 7 7 8 8 9 9
10 10 9 7 3 0 1 -0 -1 -0 2 5 6 6 6 6 5 5 5 7 8 7 7 7 7 6 5 4 4 5 4 4 5 6 6 6 7 7 8 8 8 8
10 10 8 5 2 2 1 -2 -2 -0 2 5 6 7 7 7 6 4 2 4 6 6 6 6 7 6 4 3 3 4 3 5 6 7 7 7 7 7 7 8 8 8
9 8 6 5 3 2 1 -1 -1 1 4 6 6 7 7 7 6 3 -1 -0 2 2 2 4 6 5 3 2 4 4 5 6 7 7 7 7 7 7 7 8 8 8
8 7 7 7 4 2 1 -1 -1 2 4 6 7 7 6 6 4 -1 -6 -6 -4 -2 -1 1 4 4 2 3 5 5 7 8 8 8 7 7 7 6 6 7 8 8
8 8 8 7 4 -1 -3 -3 0 3 4 6 7 7 6 4 0 -7 -12 -10 -8 -6 -5 -2 3 4 2 4 6 6 7 8 8 7 7 7 6 5 5 5 7 7
8 9 9 8 2 -5 -6 -2 1 2 3 5 6 6 6 1 -7 -13 -13 -13 -12 -11 -8 -2 3 3 2 2 4 5 6 7 7 7 6 6 6 5 4 4 6 7
8 9 9 7 1 -4 -3 -0 2 3 3 3 5 5 3 -3 -12 -13 -13 -13 -12 -11 -7 0 4 6 5 4 3 3 4 6 8 6 4 5 5 4 3 3 5 6
9 9 8 6 1 -0 2 4 5 5 3 2 3 2 -2 -9 -13 -11 -11 -12 -11 -10 -6 -2 2 4 5 4 3 2 1 4 7 7 4 3 4 4 2 2 4 6
9 9 8 5 2 3 5 6 7 5 3 2 -0 -5 -8 -9 -9 -9 -9 -9 -10 -9 -7 -6 -5 -3 -2 -1 0 1 1 2 5 7 6 4 3 3 3 2 2 4
9 8 7 6 4 5 7 7 6 5 3 1 -2 -6 -7 -7 -6 -5 -5 -6 -8 -10 -9 -7 -6 -5 -6 -6 -3 -0 1 1 2 4 5 4 4 3 3 2 2 2
8 8 7 6 5 7 7 7 6 5 4 1 -2 -2 -2 -3 -3 -2 -1 -1 -3 -6 -8 -8 -6 -5 -4 -4 -4 -2 -2 -3 -2 1 2 2 2 1 0 2 2 2
8 8 8 7 7 7 8 7 5 5 5 2 -1 -2 0 1 0 0 0 1 0 -1 -4 -6 -6 -5 -3 -2 -3 -3 -3 -3 -3 -1 1 0 -0 -1 -2 -0 1 2
8 8 8 8 7 7 7 6 4 4 5 4 1 -1 1 3 3 2 1 1 1 1 0 -1 -2 -3 -3 -3 -3 -2 -2 -2 -4 -4 -1 -0 0 1 0 0 0 1
9 8 8 8 8 7 7 6 4 3 4 4 3 0 1 4 4 4 3 1 1 2 1 2 2 1 -0 -2 -3 -2 -1 -1 -3 -4 -3 -1 1 2 2 1 2 1
9 8 8 8 8 8 7 6 5 4 4 4 4 3 4 5 4 4 3 2 1 2 2 2 2 2 2 0 -2 -3 -2 -2 -2 -2 -1 -0 0 1 2 2 2 2
8 8 8 8 8 8 7 6 5 5 5 5 5 5 6 5 4 4 4 3 2 2 2 2 2 2 2 2 1 -0 -1 -2 -2 -2 -1 -1 -1 -0 0 0 1 1
8 8 8 8 8 8 7 6 6 6 6 6 6 6 6 5 4 4 4 4 3 2 2 2 2 2 2 2 2 2 2 1 0 -1 -1 -1 -2 -2 -2 -2 -2 -2
8 8 8 8 8 8 8 7 7 7 7 6 6 6 6 6 5 4 4 4 4 3 3 3 3 3 3 3 2 2 2 2 2 2 2 1 1 1 0 -0 -1 -1
8 8 8 8 8 8 8 8 8 8 7 6 6 6 6 6 6 6 6 5 5 4 4 4 3 3 3 3 3 3 3 3 3 3 3 3 3 3 2 2 2 2
7 7 8 8 8 8 7 8 8 8 8 7 6 6 6 6 6 6 6 6 6 6 5 5 5 4 4 4 4 3 3 3 3 3 3 3 3 3 3 3 3 3
3 4 6 6 7 7 7 7 7 8 8 7 7 6 6 6 6 6 6 6 6 6 6 6 5 5 5 5 5 5 4 4 4 4 3 3 3 3 3 3 3 3
-2 -0 2 3 4 5 5 6 6 7 7 6 6 6 5 5 5 6 5 5 6 6 6 6 6 6 6 5 5 5 5 5 5 5 5 4 4 4 4 3 4 4
-5 -4 -3 -2 -1 1 1 2 3 4 4 5 5 5 4 4 5 5 4 4 4 4 4 4 4 4 5 5 5 6 6 6 6 6 6 6 5 5 5 5 6 6
-5 -5 -5 -4 -4 -4 -4 -3 -2 -2 -2 -0 1 2 2 3 3 3 3 3 3 3 3 3 3 3 3 3 3 4 4 5 5 6 6 6 6 6 6 6 7 6